Погода в Межевой

Украина / Днепропетровская область     48°15′13″N   36°43′40″E
темп.,
°C
ветер,
м/с
пор.,
м/с
влажн.,
%
обл.,
%
осадки,
мм/ч
давл.,
гПа
погр.,
м
17 мая, пн
пн1700:00+17всв41181100 0.1 1005185
03:00+16вюв5157176 0.1 1004303
06:00+15вюв5137047 0.0 1003301
09:00+20юв8126861 0.0 1004615
12:00+23ю81067100 0.0 10041042
15:00+25ю685762 0.0 10051402
18:00+24ююв6861100 0.0 1005868
21:00+18ю51082100 0.0 1007346
18 мая, вт
вт1800:00+15ю4996100 0.0 1008261
03:00+14ю3696100 0.0 1008144
06:00+14ююв3590100 0.0 1008188
09:00+17ююз347299 0.0 1008478
12:00+21ю455876 0.6 10071517
15:00+20ю7106260 1.3 1007879
18:00+19ю796467 0.1 1006808
21:00+16ю6107681 0.1 1007617
19 мая, ср
ср1900:00+13ююв510955 0.0 1007306
03:00+12ю4998100 0.3 1007289
06:00+11ююв489387 0.0 1007277
09:00+17ю686712 0.1 10071176
12:00+18ю10125694 1.3 10061938
15:00+15ююз81178100 2.4 1007967
18:00+13ююз61186100 0.1 1008783
21:00+12ююз6109070 0.2 1009563
20 мая, чт
чт2000:00+12зюз81290100 0.1 1010708
03:00+11юз6138848 0.1 1012764
06:00+11зюз614870 0.0 1013622
09:00+16зюз710661 0.0 10141120
12:00+20зюз79504 0.0 10151662
15:00+22зюз674891 0.0 10152167
18:00+21зюз245326 0.0 10151371
21:00+17ююв346358 0.0 101652
21 мая, пт
пт2100:00+13ю227717 0.0 101720
03:00+12юв33735 0.0 101736
06:00+13вюв38742 0.0 1017152
09:00+20вюв7105877 0.0 1016744
12:00+23юв78505 0.0 10161247
15:00+25юв79450 0.0 10141347
18:00+24юв69580 0.0 1014970
21:00+18вюв39840 0.0 1014171